Temperature
10 10 10 10 10 10 11 11 11 11 11 11 11 11 11 11 11 11 11 11 11 11 11 12 12 12 12 12 12 11 11 11 11 11 11 11 11 11 11 11 11 11 10
9 9 9 10 10 10 10 10 10 10 10 11 11 11 11 11 11 11 11 11 11 11 11 11 11 11 11 11 11 11 11 11 11 11 11 11 11 10 10 10 10 10 10
8 8 9 9 9 9 9 9 10 10 10 10 10 10 10 10 10 11 11 11 11 11 11 11 11 11 11 11 11 11 11 11 11 11 11 11 10 10 10 10 10 10 10
7 8 8 8 8 8 9 9 9 9 9 9 10 10 10 10 10 10 10 10 10 10 11 11 11 11 11 11 11 11 11 11 10 10 10 10 10 10 10 10 10 10 10
7 7 7 8 8 8 8 8 8 9 9 9 9 9 9 10 10 10 10 10 10 10 10 10 10 10 10 10 10 10 10 10 10 10 10 10 10 10 10 10 10 10 10
6 6 7 7 7 7 8 8 8 8 8 8 8 9 9 9 9 9 9 10 10 10 10 10 10 10 10 10 10 10 10 10 10 10 10 10 10 10 10 10 10 10 10
5 6 6 6 7 7 7 7 7 8 8 8 8 8 8 9 9 9 9 9 9 9 9 9 9 9 10 10 10 9 9 9 10 10 10 10 10 10 9 9 9 9 9
5 5 5 6 6 6 7 7 7 7 7 7 7 7 7 8 8 8 9 9 9 9 9 9 9 9 9 9 9 9 9 9 9 9 9 9 9 9 9 9 9 9 9
4 4 5 5 5 6 6 6 6 7 7 7 6 6 6 6 7 8 8 8 8 8 9 9 9 9 9 9 9 9 9 9 9 9 9 9 9 9 9 9 9 9 9
4 4 4 4 5 5 5 6 6 6 6 6 6 6 6 6 6 6 7 7 8 8 8 8 8 8 8 8 8 8 8 8 8 9 9 9 8 9 9 9 9 9 9
3 3 3 4 4 4 5 5 5 5 6 6 6 6 6 6 6 6 6 7 7 7 8 8 8 8 8 8 8 8 8 8 8 8 8 8 8 8 8 8 8 8 8
2 2 3 3 3 4 4 4 5 5 5 5 5 5 5 5 6 6 6 6 6 7 7 7 7 7 8 8 8 8 8 8 8 8 8 8 8 8 8 8 8 8 8
2 2 2 2 3 3 3 4 4 4 5 5 5 5 5 5 6 6 6 6 5 6 6 7 7 7 7 7 7 7 7 7 7 7 7 8 8 7 7 7 7 7 7
1 1 1 2 2 3 3 3 3 4 4 4 4 5 5 5 5 5 5 5 5 5 6 6 7 7 7 7 7 7 7 7 7 7 7 7 7 7 7 7 7 7 7
0 1 1 1 2 2 2 2 3 3 3 4 4 4 4 4 5 5 5 5 5 5 5 6 6 6 6 6 6 6 6 7 7 7 7 7 7 7 7 7 7 7 6
-0 0 0 1 1 1 2 2 2 2 3 3 3 4 4 4 4 4 4 4 4 5 5 5 6 6 6 6 6 6 6 6 6 6 6 6 6 6 6 6 6 6 6
-1 -0 -0 -0 0 1 1 1 2 2 2 2 3 3 3 3 4 4 4 4 4 4 4 5 5 5 5 5 5 5 5 5 5 6 6 6 6 6 6 6 6 6 6
-1 -1 -1 -1 -0 -0 0 0 1 1 1 1 2 2 2 3 3 3 3 3 3 3 4 4 4 4 4 4 5 5 5 5 5 5 5 5 5 5 5 5 5 5 5
-2 -2 -2 -1 -1 -1 -1 -1 -1 -0 0 1 1 1 2 2 2 3 3 3 3 3 3 3 3 4 4 4 4 4 4 4 4 5 5 5 5 5 5 5 5 5 5
-3 -2 -2 -2 -2 -2 -1 -1 -1 -1 -1 -0 0 1 1 1 2 2 2 2 2 2 2 2 3 3 3 3 3 3 3 4 4 4 4 4 4 4 4 4 4 4 4
-3 -3 -3 -3 -2 -2 -2 -2 -2 -2 -1 -1 -0 -0 0 1 1 1 1 1 1 2 2 2 2 2 2 3 3 3 3 3 3 3 4 4 4 4 4 4 4 4 4
-4 -4 -4 -4 -3 -3 -3 -3 -2 -2 -2 -2 -1 -1 -1 -0 0 0 0 1 1 1 1 1 1 2 2 2 2 2 2 2 2 3 3 3 3 3 4 4 4 4 4
-5 -4 -4 -4 -4 -3 -3 -3 -3 -3 -3 -2 -2 -2 -1 -1 -1 -0 -0 -0 0 0 0 1 1 1 1 2 2 2 2 2 2 2 2 3 3 3 3 3 3 3 3
-5 -5 -5 -4 -4 -4 -4 -4 -3 -3 -3 -3 -3 -2 -2 -2 -2 -1 -1 -1 -1 -0 -0 -0 0 1 1 1 1 1 1 1 1 1 1 1 2 2 2 3 3 3 2
-6 -5 -5 -5 -5 -4 -4 -4 -4 -4 -4 -3 -3 -3 -3 -3 -2 -2 -2 -2 -1 -1 -1 -1 -1 -0 0 0 0 0 0 -0 0 1 1 1 1 1 2 2 2 2 2
-6 -6 -5 -5 -5 -5 -5 -5 -5 -5 -4 -4 -4 -4 -3 -3 -3 -3 -2 -2 -2 -2 -1 -1 -1 -1 -1 -0 -0 -0 -0 -1 -1 -1 0 -0 0 -0 -0 1 1 1 1
Wind_Speed
3 2 2 2 2 3 3 3 3 3 3 3 3 3 2 2 2 2 2 1 2 3 4 5 5 5 5 6 5 6 6 5 6 5 5 5 5 6 6 6 6 6 6
2 3 1 1 1 2 2 2 3 2 2 2 2 1 1 2 2 2 1 2 2 2 3 4 4 4 5 5 5 5 5 5 5 5 5 5 5 5 5 5 5 6 6
2 2 2 0 0 1 2 2 2 2 2 1 1 1 1 1 1 1 2 2 2 2 3 3 3 4 4 4 5 4 4 5 5 5 5 5 5 5 4 4 5 5 4
3 2 2 1 1 1 2 1 2 2 1 1 0 0 0 0 1 1 2 2 2 2 3 2 2 3 3 3 4 5 5 6 6 5 5 5 5 4 4 4 4 4 4
4 3 2 2 2 1 1 2 1 2 2 1 1 1 1 1 1 1 1 2 3 3 3 3 2 2 2 2 4 5 5 6 6 6 5 5 5 5 5 5 4 4 4
5 4 3 3 2 1 2 2 2 2 2 2 1 1 1 2 1 2 2 2 3 3 3 3 3 3 3 3 3 4 4 5 5 6 6 6 5 5 6 5 5 5 5
5 4 3 3 2 2 3 3 2 2 2 2 1 0 1 1 2 2 2 2 2 3 3 3 3 3 3 4 3 3 3 4 4 5 6 6 6 6 6 6 6 6 6
6 4 4 3 3 2 2 2 3 2 2 3 2 1 1 1 2 2 2 3 2 2 2 3 4 4 3 3 3 3 3 4 5 5 5 6 7 7 7 6 7 7 7
6 6 5 4 4 3 3 4 4 4 3 3 3 3 2 3 1 2 3 2 2 2 2 3 4 4 5 4 3 4 4 4 6 6 7 7 8 8 8 8 7 6 7
6 6 6 5 4 3 3 4 4 3 5 5 3 2 2 2 2 2 2 2 2 3 3 2 3 5 5 5 5 4 5 5 6 7 7 7 7 6 8 8 8 7 8
6 6 5 5 4 3 4 4 4 4 4 5 4 3 2 1 2 3 3 3 2 2 3 3 3 4 5 6 6 6 6 7 7 8 7 7 7 6 6 7 8 8 9
5 5 5 5 4 4 4 4 5 5 5 5 4 4 4 3 3 3 3 3 4 3 3 3 4 4 5 6 7 7 7 8 8 8 8 8 8 7 7 7 8 8 7
5 5 5 5 5 5 5 5 5 6 6 7 6 5 5 5 4 3 3 3 3 2 2 2 4 5 6 6 7 8 8 8 8 9 9 9 8 7 7 7 7 8 8
5 6 6 5 5 5 6 5 4 5 5 6 6 6 5 5 4 4 3 3 3 3 3 4 2 5 6 6 7 8 7 8 8 9 9 9 8 7 7 7 8 7 8
6 6 6 5 5 5 5 5 4 5 4 4 5 5 5 4 4 4 4 4 4 4 5 4 3 3 5 5 6 6 7 9 9 9 9 8 8 7 7 7 8 7 7
6 6 6 5 5 5 5 4 4 4 4 4 4 5 5 4 4 3 4 4 4 4 5 3 3 2 3 4 6 6 7 8 9 9 9 9 8 7 7 7 7 7 7
6 6 6 5 5 5 4 4 4 4 4 4 4 5 6 5 4 4 4 4 4 3 5 3 2 2 3 3 3 4 6 6 7 9 10 9 8 8 7 7 7 7 8
6 6 6 5 6 5 4 4 5 4 4 5 5 4 5 4 5 4 4 5 4 4 4 5 3 3 3 4 3 3 3 4 5 8 9 9 9 8 8 8 8 8 8
6 5 5 6 6 5 5 5 5 5 5 5 5 5 5 4 5 4 5 5 5 4 3 4 4 3 3 2 2 2 2 2 4 6 8 8 9 9 9 9 8 8 8
6 5 5 5 5 5 5 5 5 5 5 5 5 5 5 5 5 5 5 5 4 4 3 4 4 3 3 2 3 3 3 3 3 4 5 6 8 8 9 9 9 9 9
6 6 6 5 5 5 5 5 5 5 5 5 5 5 5 5 6 5 5 5 5 4 4 4 4 3 3 3 4 3 4 3 3 3 3 4 4 5 7 9 9 10 10
5 5 6 6 6 5 7 8 6 5 5 5 5 5 5 5 6 7 7 6 6 6 6 5 5 5 6 5 3 4 3 3 4 3 3 4 3 4 5 7 9 11 11
6 6 6 6 6 7 8 8 8 5 5 5 5 5 4 5 5 4 6 7 6 8 8 7 6 7 6 6 5 5 5 5 5 3 3 5 4 5 5 8 10 11 10
5 6 6 6 6 7 8 8 8 5 5 5 5 5 6 5 5 4 4 5 5 5 7 6 6 6 6 5 6 6 5 3 2 2 2 4 4 4 4 6 10 11 11
6 6 6 6 6 6 8 8 7 4 4 5 5 5 5 5 7 7 5 5 5 5 6 7 8 8 8 8 6 3 3 3 4 3 2 2 2 2 3 4 7 9 9
5 6 6 5 5 6 8 8 7 4 4 5 4 5 7 7 8 7 6 6 6 6 4 4 5 5 5 5 7 6 6 5 4 3 3 3 2 1 2 3 3 5 8
Wind_Direction
12 14 30 46 70 90 95 96 99 96 89 92 97 108 107 116 128 125 124 123 144 145 142 139 137 136 136 140 139 140 136 132 136 132 126 121 121 120 115 119 123 121 119
4 358 353 29 61 102 122 127 131 115 101 100 82 89 134 137 145 151 169 184 181 178 174 166 163 161 160 155 152 154 159 148 143 144 138 129 126 126 122 115 122 124 128
344 349 321 291 194 157 143 122 128 115 114 104 110 77 104 163 162 177 190 197 196 206 202 196 182 176 179 176 173 170 172 165 158 153 150 145 140 136 135 135 127 127 135
326 312 308 270 237 185 154 152 158 156 163 162 198 250 81 178 211 200 195 192 194 199 204 203 186 170 180 191 188 187 186 178 177 171 165 164 169 165 162 155 157 147 153
317 298 294 271 227 187 187 189 193 180 181 183 219 233 237 226 233 213 210 195 194 196 197 206 199 181 188 208 210 207 200 190 186 187 184 184 190 198 198 188 187 181 177
309 310 297 279 237 206 212 193 201 196 180 176 192 247 258 248 219 209 214 204 195 196 193 199 202 212 213 226 228 216 202 197 200 203 202 203 205 214 212 208 205 202 200
305 304 305 283 260 225 216 200 192 189 178 152 114 10 310 252 225 220 209 202 201 204 193 195 197 197 219 228 222 218 210 209 211 211 212 214 219 223 216 215 218 217 213
316 299 305 281 268 256 229 210 191 186 190 173 151 146 231 276 257 234 219 208 214 210 210 209 205 204 213 215 224 228 229 229 226 228 232 231 230 228 224 225 228 223 218
311 307 296 279 259 244 231 227 209 200 196 199 181 170 177 222 273 252 231 216 209 217 229 214 216 217 212 207 216 228 232 239 239 239 240 244 240 235 225 226 223 217 215
306 303 299 288 262 249 236 236 224 218 198 201 200 205 209 182 200 237 257 243 235 229 223 229 228 224 216 210 217 230 231 239 244 244 243 243 243 244 228 223 221 221 220
312 308 303 298 285 264 246 238 243 225 216 209 202 197 200 225 217 211 236 239 255 242 233 233 229 230 228 219 221 231 235 239 245 245 246 250 247 251 241 227 225 226 224
312 315 315 302 293 281 259 250 240 232 225 222 216 204 200 203 208 212 226 234 245 246 245 232 226 231 233 224 225 232 234 239 246 247 250 253 253 255 252 239 228 221 219
303 304 307 304 301 293 278 262 246 242 229 223 221 219 213 216 211 215 220 240 257 268 244 240 229 228 231 231 231 234 232 234 244 250 253 256 258 256 254 249 234 223 218
289 299 300 299 299 295 285 270 253 249 239 227 227 229 227 224 216 212 208 211 242 252 240 239 242 228 226 234 241 232 235 238 243 249 254 257 256 250 246 242 231 227 224
293 298 297 294 294 290 283 274 262 255 250 239 228 227 233 230 220 219 214 211 211 233 240 228 224 220 224 229 237 237 238 241 243 247 251 253 248 241 242 240 232 228 227
296 294 294 293 293 289 285 273 270 270 259 253 235 224 232 231 222 223 219 222 223 227 241 229 225 240 228 238 236 234 245 240 239 241 243 246 241 240 242 238 232 230 227
296 294 292 292 291 288 281 272 269 269 263 267 255 232 234 229 221 224 224 219 221 222 240 263 256 255 222 227 242 239 246 243 239 240 241 239 236 237 237 235 236 233 229
293 293 296 290 287 283 277 268 268 265 257 260 261 249 248 242 226 225 225 222 222 222 227 250 262 249 238 223 224 227 242 246 244 241 239 236 235 237 236 235 235 232 229
291 291 291 288 287 284 277 269 262 260 253 251 252 247 247 244 238 229 225 223 223 228 227 236 252 255 256 228 221 241 241 251 253 242 238 237 236 235 233 234 236 235 233
288 288 286 286 289 287 279 274 268 263 260 257 254 249 246 239 242 232 228 224 220 221 226 228 244 248 249 225 199 219 247 244 254 248 240 241 241 237 234 235 236 235 234
292 289 289 288 288 284 275 271 265 265 263 264 260 254 250 251 250 242 237 224 217 217 218 227 236 245 242 218 212 214 239 250 257 232 227 241 239 242 238 235 234 235 234
296 294 293 292 292 288 295 290 280 267 264 264 264 261 260 257 262 265 263 246 232 220 217 222 233 234 239 241 226 215 228 242 252 218 217 248 237 242 245 231 240 240 237
299 296 292 288 283 285 292 291 290 279 266 260 262 263 264 262 259 259 267 260 256 252 239 227 229 236 229 227 218 220 221 232 242 231 225 241 229 240 251 243 245 240 238
291 291 291 285 284 289 293 293 294 283 272 264 259 256 253 257 254 252 253 253 251 254 252 248 238 240 236 222 216 222 230 240 275 249 225 234 230 244 262 248 241 237 238
289 289 289 287 285 290 294 292 291 274 268 267 262 258 254 254 261 253 247 248 254 260 263 260 261 255 251 243 228 214 217 225 255 254 224 214 222 255 248 243 239 237 241
291 295 296 294 288 286 290 290 289 267 267 269 264 259 264 265 268 259 239 236 245 256 252 263 268 271 265 254 245 223 214 221 234 241 214 200 210 215 249 233 233 243 247
Height
1536 1537 1537 1539 1540 1541 1542 1543 1545 1546 1547 1549 1549 1550 1551 1552 1554 1555 1556 1556 1557 1558 1558 1559 1559 1560 1560 1561 1562 1562 1563 1564 1564 1565 1565 1566 1566 1567 1567 1567 1568 1568 1569
1534 1534 1535 1536 1537 1539 1540 1541 1543 1544 1545 1546 1547 1548 1549 1551 1552 1553 1554 1555 1556 1557 1557 1558 1558 1559 1559 1560 1561 1561 1562 1563 1563 1564 1565 1565 1566 1566 1567 1567 1567 1568 1568
1531 1532 1533 1534 1535 1536 1537 1539 1540 1541 1543 1544 1545 1546 1547 1549 1550 1551 1552 1553 1554 1555 1556 1557 1557 1558 1558 1559 1559 1560 1561 1562 1562 1563 1564 1564 1565 1565 1566 1566 1566 1567 1567
1529 1530 1530 1531 1532 1533 1535 1536 1537 1538 1540 1541 1542 1544 1545 1546 1547 1549 1550 1551 1552 1553 1554 1555 1556 1556 1557 1558 1558 1559 1559 1560 1561 1562 1562 1563 1563 1564 1564 1565 1565 1565 1566
1526 1527 1527 1528 1529 1530 1532 1533 1534 1535 1536 1538 1539 1541 1542 1543 1545 1546 1547 1549 1550 1551 1552 1552 1553 1554 1555 1556 1556 1557 1558 1558 1559 1560 1560 1561 1561 1562 1563 1563 1563 1564 1564
1523 1524 1525 1525 1526 1527 1528 1529 1531 1532 1533 1535 1536 1537 1539 1540 1542 1543 1544 1546 1547 1548 1549 1550 1551 1552 1553 1553 1554 1555 1555 1556 1557 1558 1558 1559 1559 1560 1560 1561 1561 1562 1562
1520 1520 1521 1521 1522 1523 1524 1526 1527 1528 1530 1531 1533 1534 1535 1537 1538 1539 1541 1542 1543 1545 1546 1547 1548 1549 1550 1551 1551 1552 1553 1553 1554 1555 1556 1556 1557 1557 1558 1559 1559 1559 1560
1516 1516 1517 1517 1518 1519 1520 1522 1523 1524 1526 1527 1529 1530 1531 1534 1534 1535 1537 1538 1540 1541 1542 1543 1544 1545 1546 1547 1548 1549 1550 1551 1551 1552 1553 1553 1554 1555 1555 1556 1556 1556 1557
1512 1512 1513 1513 1515 1515 1516 1517 1519 1520 1521 1523 1525 1527 1528 1528 1529 1531 1532 1533 1535 1537 1538 1539 1541 1542 1543 1544 1545 1546 1547 1548 1548 1549 1550 1550 1551 1551 1552 1553 1553 1554 1554
1508 1508 1509 1509 1510 1511 1512 1513 1515 1516 1517 1518 1520 1522 1524 1524 1526 1526 1527 1529 1531 1532 1533 1534 1536 1538 1539 1540 1541 1542 1543 1544 1545 1546 1546 1547 1548 1548 1548 1549 1550 1550 1551
1504 1504 1504 1505 1505 1506 1507 1508 1509 1511 1512 1513 1515 1516 1519 1520 1521 1522 1522 1524 1526 1527 1528 1530 1531 1533 1534 1536 1537 1538 1539 1540 1541 1542 1543 1543 1544 1545 1545 1545 1546 1546 1547
1500 1500 1500 1500 1501 1501 1502 1503 1504 1506 1507 1508 1510 1511 1513 1514 1516 1517 1518 1518 1520 1522 1523 1525 1526 1528 1529 1531 1532 1534 1535 1536 1537 1538 1539 1539 1540 1541 1541 1542 1542 1543 1543
1495 1495 1495 1495 1496 1496 1497 1498 1499 1500 1502 1503 1504 1506 1508 1509 1511 1513 1515 1515 1516 1517 1518 1519 1521 1523 1524 1525 1527 1528 1530 1531 1532 1533 1534 1535 1536 1537 1537 1538 1538 1539 1540
1492 1491 1491 1491 1491 1492 1492 1493 1494 1495 1496 1497 1499 1500 1502 1504 1506 1508 1510 1511 1511 1512 1512 1514 1516 1517 1519 1520 1522 1523 1524 1526 1527 1528 1529 1530 1531 1532 1532 1533 1534 1535 1535
1488 1487 1487 1487 1487 1487 1488 1488 1488 1489 1490 1491 1493 1495 1497 1499 1500 1502 1504 1506 1508 1507 1507 1508 1510 1511 1513 1515 1516 1517 1519 1520 1521 1523 1524 1524 1525 1526 1527 1528 1529 1530 1530
1483 1483 1482 1482 1482 1482 1482 1483 1483 1484 1484 1486 1488 1489 1491 1493 1494 1496 1498 1500 1502 1502 1502 1502 1505 1506 1507 1509 1510 1512 1513 1514 1516 1517 1518 1519 1520 1521 1522 1523 1524 1524 1525
1478 1478 1477 1477 1477 1477 1477 1477 1477 1478 1479 1481 1482 1483 1485 1487 1488 1490 1492 1494 1495 1497 1497 1497 1499 1501 1502 1503 1504 1506 1507 1508 1509 1511 1512 1513 1514 1515 1516 1517 1518 1519 1519
1474 1473 1472 1472 1472 1472 1472 1472 1472 1473 1474 1475 1476 1477 1479 1480 1482 1484 1486 1487 1489 1491 1492 1492 1493 1495 1496 1497 1498 1499 1501 1502 1503 1504 1506 1507 1508 1509 1510 1511 1512 1513 1513
1469 1468 1467 1467 1467 1467 1467 1467 1467 1467 1468 1469 1470 1471 1473 1474 1476 1478 1479 1481 1483 1484 1486 1487 1487 1489 1490 1491 1492 1493 1495 1496 1497 1498 1500 1501 1501 1502 1503 1504 1505 1506 1507
1465 1464 1463 1462 1462 1462 1462 1462 1463 1463 1463 1464 1464 1465 1466 1468 1469 1471 1473 1475 1476 1478 1480 1481 1482 1482 1484 1485 1486 1487 1488 1489 1491 1492 1493 1494 1495 1496 1497 1498 1499 1500 1501
1460 1459 1458 1457 1457 1457 1458 1458 1458 1458 1458 1458 1459 1460 1460 1462 1463 1465 1467 1468 1470 1472 1473 1475 1476 1477 1478 1478 1479 1481 1482 1483 1484 1485 1486 1487 1488 1489 1490 1491 1492 1493 1494
1456 1455 1454 1453 1452 1452 1453 1454 1454 1453 1453 1453 1454 1454 1455 1456 1457 1459 1461 1463 1464 1465 1467 1468 1469 1470 1471 1472 1474 1475 1476 1477 1477 1479 1479 1480 1482 1482 1483 1484 1485 1486 1487
1452 1451 1450 1449 1448 1448 1448 1449 1449 1449 1448 1448 1449 1449 1449 1450 1451 1453 1455 1456 1458 1459 1461 1462 1463 1463 1465 1466 1468 1468 1469 1470 1471 1472 1473 1473 1475 1475 1477 1478 1479 1480 1481
1448 1447 1446 1445 1444 1444 1443 1444 1444 1444 1443 1443 1443 1444 1444 1445 1446 1447 1448 1449 1451 1452 1454 1455 1457 1458 1459 1461 1462 1463 1463 1465 1465 1467 1467 1467 1467 1468 1470 1471 1472 1473 1474
1444 1443 1442 1441 1440 1439 1439 1439 1439 1439 1438 1438 1438 1438 1439 1439 1440 1441 1442 1443 1444 1446 1448 1449 1451 1452 1453 1455 1456 1457 1458 1459 1459 1459 1461 1461 1461 1461 1462 1464 1465 1466 1467
1440 1439 1438 1437 1436 1434 1434 1434 1434 1434 1433 1433 1433 1433 1433 1434 1435 1436 1437 1438 1438 1439 1441 1443 1444 1445 1446 1448 1449 1451 1452 1453 1453 1453 1454 1455 1455 1456 1456 1456 1458 1459 1460